COSMOS 2251 DEB, 37126

Orbit data source: Space-Track

COSMOS 2251 DEB, 37126 is space debris in LEO originally from a launch on Wed, 16 Jun 1993 UTC launched from the Plesetsk Missile And Space Complex (PKMTR). The debris from Iridium 33, an American commercial communications satellite, has been tracked extensively since its accidental collision with the defunct Russian satellite Cosmos 2251 in 2009. This event, occurring at high speed in low Earth orbit (LEO), generated thousands of pieces of space debris, significantly increasing the risk of further collisions. The Iridium 33 debris cloud has impacted space traffic management and orbital debris mitigation strategies, making it a subject of ongoing study in space situational awareness.

Loading next visibility...
Identifier
37126, 1993-036BGY
Orbit
LEO
Country
Flag of CISCIS
Related business
Manufacturer
Unknown
Mission
Spacecraft
Bus & Motor
Unknown
Mass
Unknown
Launch date (UTC)
1993-06-16 (33 years ago)
Launch vehicle
Unknown
Launch site
Plesetsk Missile And Space Complex (PKMTR)
Object type
Payload
Rocket body
Debris
Shape & HBR
Unknown shape, 0.1 m
Radar Cross Section
Small (<0.1 m²)

Expand to show TLE details & history
Last TLE update: 3 days ago

TLE from 3 days ago
0 COSMOS 2251 DEB
1 37126U 93036BGY 26206.43996595  .00001105  00000-0  15608-3 0  9996
2 37126  73.9509 274.1301 0119351  98.9023 262.5684 14.73719023114087
Epoch: 2026-07-25T10:33Z
TLE epoch observation values (Epoch: 2026-07-25T10:33:33.058Z)
Latitude
0.00007°
Longitude
172.59016°
Altitude
663.705 km
Speed
7.519 km/s
True Right ascension
18h 16m 31s
True Declination
0° 00' 00"
Sunlit
Object was in full shadow at epoch
Visualization orbit readout
Latitude
Unknown
Longitude
Unknown
Altitude
Unknown
Speed
Unknown
Apparent Right ascension
Unknown
Apparent Declination
Unknown
Sunlit
N/A
Visualization observer readout
Local Sidereal Time
08:46:17
Azimuth
Unknown
Elevation
Unknown
Doppler factor
Unknown
Orbital elements
Apogee altitude
730.653 km
Perigee altitude
562.966 km
Semi-major axis
7,024.947 km
Eccentricity
0.01194
Inclination
73.9509°
RAAN
274.1301°
Arg. of periapsis
98.9023°
True anomaly
261.21496°
Mean anomaly
262.5684°
Eccentric anomaly
261.89141°
Mean motion
3.6862 °/min
Orbital period
97.66 mins
BSTAR
0.00015608
Loading maneuver chart data...
Computing Atmospheric mass density...

Documentation

Showing up to 5 results
|